Location: Newark
(30.4994°N, 96.8283°W)
Time: 05:59:48
(UTC+00:00)

Envisat - Pass Details

Date: 22 November 2019
Orbit: 764 x 766 km, 98.1° (Epoch: 12 December)

Event Time Altitude Azimuth Distance (km) Brightness Sun altitude
Rises 00:17:51 0° 158° (SSE) 3,217 6.2 -11.0°
Reaches altitude 10° 00:20:10 10° 154° (SSE) 2,294 5.4 -11.4°
Maximum altitude 00:25:09 61° 75° (ENE) 868 3.0 -12.5°
Drops below altitude 10° 00:30:09 10° 356° (N) 2,305 5.4 -13.5°
Sets 00:32:28 0° 353° (N) 3,234 6.2 -14.0°
